TimeEDT,TemperatureF,Dew PointF,Humidity,Sea Level PressureIn,VisibilityMPH,Wind Direction,Wind SpeedMPH,Gust SpeedMPH,PrecipitationIn,Events,Conditions,WindDirDegrees,DateUTC
12:53 AM,48.0,37.0,66,30.12,10.0,Calm,Calm,-,N/A,,Clear,0,2014-04-01 04:53:00
1:53 AM,48.0,36.0,63,30.12,10.0,Calm,Calm,-,N/A,,Clear,0,2014-04-01 05:53:00
2:53 AM,48.0,39.9,74,30.11,10.0,Calm,Calm,-,N/A,,Clear,0,2014-04-01 06:53:00
3:53 AM,48.0,39.0,71,30.10,10.0,Calm,Calm,-,N/A,,Clear,0,2014-04-01 07:53:00
4:53 AM,48.0,39.0,71,30.10,10.0,Calm,Calm,-,N/A,,Clear,0,2014-04-01 08:53:00
5:53 AM,46.9,39.9,77,30.11,10.0,Calm,Calm,-,N/A,,Clear,0,2014-04-01 09:53:00
6:53 AM,46.0,39.0,76,30.12,10.0,Calm,Calm,-,N/A,,Clear,0,2014-04-01 10:53:00
7:53 AM,46.0,41.0,83,30.14,10.0,Calm,Calm,-,N/A,,Clear,0,2014-04-01 11:53:00
8:53 AM,53.1,45.0,74,30.15,10.0,Calm,Calm,-,N/A,,Clear,0,2014-04-01 12:53:00
9:53 AM,62.1,42.1,48,30.14,10.0,SSW,4.6,-,N/A,,Clear,200,2014-04-01 13:53:00
10:53 AM,71.1,39.9,32,30.16,10.0,SW,5.8,-,N/A,,Clear,230,2014-04-01 14:53:00
11:53 AM,79.0,30.9,17,30.15,10.0,West,11.5,-,N/A,,Clear,280,2014-04-01 15:53:00
12:53 PM,81.0,30.0,16,30.13,10.0,West,12.7,-,N/A,,Clear,280,2014-04-01 16:53:00
1:53 PM,81.0,27.0,14,30.10,10.0,Variable,6.9,-,N/A,,Clear,0,2014-04-01 17:53:00
2:53 PM,82.0,25.0,12,30.08,10.0,WSW,5.8,-,N/A,,Clear,240,2014-04-01 18:53:00
3:53 PM,82.9,26.1,13,30.06,10.0,Variable,4.6,16.1,N/A,,Clear,0,2014-04-01 19:53:00
4:53 PM,84.0,23.0,11,30.05,10.0,WSW,12.7,-,N/A,,Clear,250,2014-04-01 20:53:00
5:53 PM,82.9,24.1,12,30.04,10.0,SW,11.5,-,N/A,,Clear,230,2014-04-01 21:53:00
6:53 PM,81.0,27.0,14,30.05,10.0,SW,9.2,-,N/A,,Clear,220,2014-04-01 22:53:00
7:53 PM,77.0,28.0,17,30.06,10.0,South,3.5,-,N/A,,Clear,190,2014-04-01 23:53:00
8:53 PM,66.9,34.0,30,30.09,10.0,South,6.9,-,N/A,,Clear,180,2014-04-02 00:53:00
9:53 PM,66.9,39.9,37,30.10,10.0,SSW,9.2,-,N/A,,Clear,210,2014-04-02 01:53:00
10:53 PM,64.9,41.0,42,30.11,10.0,SSW,8.1,-,N/A,,Clear,200,2014-04-02 02:53:00
11:53 PM,64.0,39.9,41,30.11,10.0,SSW,4.6,-,N/A,,Clear,200,2014-04-02 03:53:00